This is the latest recevied weather packets stored in our database for station/object WB0OCV. If no packets are shown the sender has not sent any weather packets the latest 10 day(s).
| Time | Temp. | Humidity | Pressure | Rain* | Wind** | Luminosity | Snow |
|---|---|---|---|---|---|---|---|
| 1777560758 | 13.33° C | 85% | 1008.7 hPa | 0 mm | - | 326 W/m² | - |
| 1777560455 | 12.78° C | 87% | 1008.9 hPa | 0 mm | - | 336 W/m² | - |
| 1777560152 | 12.22° C | 87% | 1008.9 hPa | 0 mm | - | 393 W/m² | - |
| 1777559849 | 12.22° C | 88% | 1008.8 hPa | 0 mm | - | 295 W/m² | - |
| 1777559545 | 12.78° C | 86% | 1009.1 hPa | 0 mm | - | 399 W/m² | - |
| 1777559243 | 12.78° C | 88% | 1009.1 hPa | 0 mm | - | 389 W/m² | - |
| 1777558938 | 11.67° C | 87% | 1009.3 hPa | 0 mm | - | 445 W/m² | - |
| 1777558634 | 11.11° C | 92% | 1009.1 hPa | 0 mm | - | 420 W/m² | - |
| 1777558329 | 10.56° C | 92% | 1009.3 hPa | 0 mm | - | 327 W/m² | - |
| 1777558027 | 10.56° C | 94% | 1009.3 hPa | 0 mm | - | 444 W/m² | - |
| 1777557723 | 10° C | 94% | 1009.2 hPa | 0 mm | - | 320 W/m² | - |
| 1777557419 | 10° C | 95% | 1009.3 hPa | 0 mm | - | 256 W/m² | - |
| 1777557115 | 10° C | 95% | 1009.4 hPa | 0 mm | - | 155 W/m² | - |
| 1777556811 | 10° C | 94% | 1009.5 hPa | 0 mm | - | 129 W/m² | - |
| 1777556508 | 10° C | 94% | 1009.6 hPa | 0 mm | - | 152 W/m² | - |
| 1777556207 | 10° C | 95% | 1009.8 hPa | 0 mm | - | 134 W/m² | - |
| 1777555903 | 10° C | 95% | 1010 hPa | 0 mm | - | 96 W/m² | - |
| 1777555599 | 10° C | 95% | 1009.8 hPa | 0 mm | - | 95 W/m² | - |
| 1777555296 | 10° C | 95% | 1009.8 hPa | 0 mm | - | 115 W/m² | - |
| 1777554992 | 10° C | 95% | 1009.9 hPa | 0 mm | - | 131 W/m² | - |
| 1777554690 | 10° C | 95% | 1010.1 hPa | 0 mm | - | 87 W/m² | - |
| 1777554386 | 10° C | 95% | 1009.8 hPa | 0 mm | - | 116 W/m² | - |
| 1777554083 | 10° C | 95% | 1010 hPa | 0 mm | - | 137 W/m² | - |
| 1777553780 | 10° C | 96% | 1010 hPa | 0 mm | - | 112 W/m² | - |
| 1777553477 | 10° C | 96% | 1010 hPa | 0 mm | - | 172 W/m² | - |
* Rain latest hour (hover to see other rain measurements)
** Current wind speed in m/s (hover to see current wind gust speed)